This demonstration page uses our WeatherBlox Daily Observations layout. Learn more.

Left ArrowRight Arrow

Hourly Observations for May 13, 2015

Temp ( °F °C ) Dew Point ( °F °C ) Humidity (%) Winds ( mph kmh ) Pressure ( in mb ) Visibility ( mi km ) Precip ( " mm )
12:15 am 00:15 Clear 68 20 46 8 46 46 NW 10 17 30.03 1017 10 16 N/A
12:35 am 00:35 Clear 68 20 46 8 46 46 NW 10 17 30.03 1017 10 16 N/A
12:55 am 00:55 Clear 66 19 46 8 49 49 NW 13 20 30.03 1017 10 16 N/A
1:15 am 01:15 Clear 66 19 46 8 49 49 NW 9 15 30.03 1017 10 16 N/A
1:35 am 01:35 Clear 66 19 46 8 49 49 NNW 13 20 30.03 1017 10 16 N/A
1:55 am 01:55 Clear 64 18 46 8 52 52 NW 13 20 30.03 1017 10 16 N/A
2:15 am 02:15 Clear 64 18 46 8 52 52 NNW 14 22 30.03 1017 10 16 N/A
2:35 am 02:35 Clear 63 17 46 8 56 56 NNW 6 9 30.06 1018 10 16 N/A
2:55 am 02:55 Partly Cloudy 63 17 46 8 56 56 NNW 10 17 30.06 1018 10 16 N/A
3:15 am 03:15 Partly Cloudy 63 17 46 8 56 56 NNW 10 17 30.06 1018 10 16 N/A
3:35 am 03:35 Mostly Cloudy 61 16 46 8 59 59 NNW 9 15 30.06 1018 10 16 N/A
3:55 am 03:55 Cloudy 61 16 46 8 59 59 NNW 8 13 30.06 1018 10 16 N/A
4:15 am 04:15 Cloudy 61 16 46 8 59 59 NW 8 13 30.09 1019 10 16 N/A
4:35 am 04:35 Cloudy 61 16 46 8 59 59 NW 14 22 30.09 1019 10 16 N/A
4:55 am 04:55 Partly Cloudy 61 16 46 8 59 59 NW 14 22 30.09 1019 10 16 N/A
5:15 am 05:15 Mostly Cloudy 61 16 46 8 59 59 WNW 17 28 30.09 1019 10 16 N/A
5:35 am 05:35 Mostly Cloudy 61 16 45 7 55 55 NW 14 22 30.12 1020 10 16 N/A
5:55 am 05:55 Partly Cloudy 61 16 45 7 55 55 NW 22 35 30.12 1020 10 16 N/A
6:15 am 06:15 Sunny 59 15 43 6 55 55 NW 20 31 30.12 1020 10 16 N/A
6:35 am 06:35 Sunny 59 15 43 6 55 55 NW 14 22 30.15 1021 10 16 N/A
6:55 am 06:55 Mostly Cloudy 59 15 45 7 59 59 NW 17 28 30.15 1021 10 16 N/A
7:15 am 07:15 Mostly Cloudy 59 15 45 7 59 59 NW 12 19 30.18 1022 10 16 N/A
7:35 am 07:35 Partly Cloudy 59 15 45 7 59 59 WNW 12 19 30.18 1022 10 16 N/A
7:55 am 07:55 Partly Cloudy 59 15 43 6 55 55 NNW 12 19 30.21 1023 10 16 N/A
8:15 am 08:15 Mostly Cloudy 61 16 43 6 52 52 NW 20 31 30.21 1023 10 16 N/A
8:35 am 08:35 Cloudy 61 16 43 6 52 52 NW 14 22 30.21 1023 10 16 N/A
8:55 am 08:55 Cloudy 59 15 43 6 55 55 NNW 16 26 30.21 1023 10 16 N/A
9:15 am 09:15 Mostly Cloudy 61 16 45 7 55 55 NW 20 31 30.21 1023 10 16 N/A
9:35 am 09:35 Cloudy 59 15 43 6 55 55 NNW 13 20 30.24 1024 10 16 N/A
9:55 am 09:55 Cloudy 61 16 43 6 52 52 NW 21 33 30.24 1024 10 16 N/A
10:15 am 10:15 Cloudy 61 16 43 6 52 52 WNW 13 20 30.24 1024 10 16 N/A
10:35 am 10:35 Cloudy 61 16 43 6 52 52 NNW 17 28 30.24 1024 10 16 N/A
10:55 am 10:55 Cloudy 61 16 45 7 55 55 NW 18 30 30.24 1024 10 16 N/A
11:15 am 11:15 Cloudy 59 15 45 7 59 59 NW 15 24 30.27 1025 10 16 N/A
11:35 am 11:35 Cloudy 59 15 45 7 59 59 NNW 14 22 30.27 1025 10 16 N/A
11:55 am 11:55 Cloudy 59 15 45 7 59 59 NNW 17 28 30.27 1025 10 16 N/A
12:15 pm 12:15 Cloudy 61 16 46 8 59 59 NW 14 22 30.27 1025 10 16 N/A
12:35 pm 12:35 Cloudy 61 16 45 7 55 55 NNW 21 33 30.27 1025 10 16 N/A
12:55 pm 12:55 Cloudy 63 17 46 8 56 56 WNW 15 24 30.24 1024 10 16 N/A
1:15 pm 13:15 Cloudy 61 16 46 8 59 59 NW 15 24 30.27 1025 10 16 N/A
1:35 pm 13:35 Cloudy 61 16 45 7 55 55 NW 16 26 30.27 1025 10 16 N/A
1:55 pm 13:55 Cloudy 61 16 45 7 55 55 NW 15 24 30.24 1024 10 16 N/A
2:15 pm 14:15 Cloudy 61 16 45 7 55 55 WNW 15 24 30.24 1024 10 16 N/A
2:35 pm 14:35 Cloudy 63 17 45 7 52 52 NW 16 26 30.24 1024 10 16 N/A
2:55 pm 14:55 Cloudy 61 16 45 7 55 55 NW 13 20 30.24 1024 10 16 N/A
3:15 pm 15:15 Cloudy 61 16 45 7 55 55 WNW 16 26 30.24 1024 10 16 N/A
3:35 pm 15:35 Cloudy 61 16 45 7 55 55 NNW 13 20 30.24 1024 10 16 N/A
3:55 pm 15:55 Cloudy 61 16 45 7 55 55 NW 12 19 30.24 1024 10 16 N/A
4:15 pm 16:15 Cloudy 61 16 45 7 55 55 NNW 15 24 30.27 1025 10 16 N/A
4:35 pm 16:35 Cloudy 63 17 45 7 52 52 NNW 13 20 30.27 1025 10 16 N/A
4:55 pm 16:55 Cloudy 61 16 45 7 55 55 NW 18 30 30.24 1024 10 16 N/A
5:15 pm 17:15 Cloudy 61 16 45 7 55 55 NW 13 20 30.27 1025 10 16 N/A
5:35 pm 17:35 Partly Cloudy 63 17 45 7 52 52 NW 15 24 30.27 1025 10 16 N/A
5:55 pm 17:55 Mostly Cloudy 63 17 45 7 52 52 NNW 18 30 30.27 1025 10 16 N/A
6:15 pm 18:15 Mostly Cloudy 63 17 45 7 52 52 NNW 16 26 30.27 1025 10 16 N/A
6:35 pm 18:35 Cloudy 63 17 45 7 52 52 NW 13 20 30.27 1025 10 16 N/A
6:55 pm 18:55 Cloudy 61 16 45 7 55 55 NW 15 24 30.27 1025 10 16 N/A
7:15 pm 19:15 Partly Cloudy 59 15 45 7 59 59 NNW 14 22 30.27 1025 10 16 N/A
7:35 pm 19:35 Partly Cloudy 59 15 45 7 59 59 NW 20 31 30.30 1026 10 16 N/A
7:55 pm 19:55 Mostly Cloudy 57 14 45 7 63 63 NW 14 22 30.30 1026 10 16 N/A
8:15 pm 20:15 Cloudy 57 14 43 6 59 59 NW 14 22 30.30 1026 10 16 N/A
8:35 pm 20:35 Cloudy 55 13 45 7 67 67 NW 15 24 30.30 1026 10 16 N/A
8:55 pm 20:55 Cloudy 55 13 45 7 67 67 NW 12 19 30.33 1027 10 16 N/A
9:15 pm 21:15 Mostly Cloudy 55 13 45 7 67 67 WNW 8 13 30.33 1027 10 16 N/A
9:35 pm 21:35 Partly Cloudy 55 13 45 7 67 67 NW 13 20 30.33 1027 10 16 N/A
9:55 pm 21:55 Clear 55 13 45 7 67 67 NW 9 15 30.33 1027 10 16 N/A
10:15 pm 22:15 Clear 54 12 43 6 67 67 WNW 9 15 30.36 1028 10 16 N/A
10:35 pm 22:35 Clear 54 12 43 6 67 67 WNW 8 13 30.39 1029 10 16 N/A
10:55 pm 22:55 Clear 54 12 43 6 67 67 NW 9 15 30.39 1029 10 16 N/A
11:15 pm 23:15 Clear 54 12 43 6 67 67 NW 12 19 30.39 1029 10 16 N/A
11:35 pm 23:35 Clear 52 11 43 6 72 72 NW 10 17 30.39 1029 10 16 N/A
11:55 pm 23:55 Clear 52 11 43 6 72 72 NW 9 15 30.39 1029 10 16 N/A

Powered by AerisWeather